This is the latest recevied weather packets stored in our database for station/object NE8U. If no packets are shown the sender has not sent any weather packets the latest 10 day(s).
| Time | Temp. | Humidity | Pressure | Rain* | Wind** | Luminosity | Snow |
|---|---|---|---|---|---|---|---|
| 1777480286 | 25° C | 19% | 1017.9 hPa | 0 mm | - | 581 W/m² | - |
| 1777479982 | 25° C | 18% | 1018 hPa | 0 mm | - | 907 W/m² | - |
| 1777479679 | 26.11° C | 18% | 1017.6 hPa | 0 mm | - | 817 W/m² | - |
| 1777479378 | 25° C | 19% | 1017.7 hPa | 0 mm | - | 752 W/m² | - |
| 1777479073 | 23.89° C | 20% | 1017.7 hPa | 0 mm | - | 693 W/m² | - |
| 1777478770 | 23.33° C | 21% | 1017.8 hPa | 0 mm | - | 758 W/m² | - |
| 1777478467 | 23.89° C | 21% | 1017.9 hPa | 0 mm | - | 689 W/m² | - |
| 1777478164 | 23.89° C | 22% | 1017.7 hPa | 0 mm | - | 555 W/m² | - |
| 1777477860 | 22.78° C | 23% | 1017.8 hPa | 0 mm | - | 425 W/m² | - |
| 1777477555 | 22.78° C | 24% | 1018 hPa | 0 mm | - | 497 W/m² | - |
| 1777477252 | 21.67° C | 24% | 1017.9 hPa | 0 mm | - | 373 W/m² | - |
| 1777476948 | 20.56° C | 25% | 1017.8 hPa | 0 mm | - | 305 W/m² | - |
| 1777476647 | 20° C | 27% | 1017.7 hPa | 0 mm | - | 282 W/m² | - |
| 1777476343 | 19.44° C | 29% | 1018 hPa | 0 mm | - | 189 W/m² | - |
| 1777476039 | 18.89° C | 27% | 1018 hPa | 0 mm | - | 167 W/m² | - |
| 1777475734 | 18.33° C | 29% | 1018 hPa | 0 mm | - | 172 W/m² | - |
| 1777475431 | 18.33° C | 28% | 1017.9 hPa | 0 mm | - | 158 W/m² | - |
| 1777475126 | 18.89° C | 29% | 1017.9 hPa | 0 mm | - | 135 W/m² | - |
| 1777474824 | 18.33° C | 29% | 1017.9 hPa | 0 mm | - | 131 W/m² | - |
| 1777474519 | 18.33° C | 29% | 1017.9 hPa | 0 mm | - | 128 W/m² | - |
| 1777474216 | 18.33° C | 29% | 1017.9 hPa | 0 mm | - | 135 W/m² | - |
| 1777473913 | 17.78° C | 30% | 1017.9 hPa | 0 mm | - | 138 W/m² | - |
| 1777473611 | 17.78° C | 29% | 1017.8 hPa | 0 mm | - | 99 W/m² | - |
| 1777473307 | 17.22° C | 29% | 1018 hPa | 0 mm | - | 104 W/m² | - |
| 1777473003 | 16.67° C | 30% | 1017.8 hPa | 0 mm | - | 102 W/m² | - |
* Rain latest hour (hover to see other rain measurements)
** Current wind speed in m/s (hover to see current wind gust speed)